Time,TemperatureF,DewpointF,PressureIn,WindDirection,WindDirectionDegrees,WindSpeedMPH,WindSpeedGustMPH,Humidity,HourlyPrecipIn,Conditions,Clouds,dailyrainin,SoftwareType,DateUTC
2013-06-22 00:00:00,72.3,71.4,29.80,NW,315,0.0,0.0,96,0.00,,,0.05,fowsr,2013-06-22 04:00:00,
2013-06-22 00:05:00,72.3,71.4,29.81,NW,315,0.0,0.0,96,0.00,,,0.05,fowsr,2013-06-22 04:05:00,
2013-06-22 00:10:00,72.5,71.5,29.81,NW,315,0.0,0.0,96,0.00,,,0.05,fowsr,2013-06-22 04:10:00,
2013-06-22 00:15:00,72.3,71.4,29.80,NW,315,0.0,0.0,96,0.00,,,0.05,fowsr,2013-06-22 04:15:00,
2013-06-22 00:20:00,72.1,71.2,29.80,NW,315,0.0,0.0,96,0.00,,,0.05,fowsr,2013-06-22 04:20:00,
2013-06-22 00:25:00,72.1,71.2,29.80,NW,315,0.0,0.0,96,0.00,,,0.05,fowsr,2013-06-22 04:25:00,
2013-06-22 00:30:00,72.1,71.2,29.80,NW,315,0.0,0.0,96,0.00,,,0.05,fowsr,2013-06-22 04:30:00,
2013-06-22 00:35:00,72.1,71.2,29.80,NW,315,0.0,0.0,96,0.00,,,0.05,fowsr,2013-06-22 04:35:00,
2013-06-22 00:40:00,72.1,71.2,29.80,NW,315,0.0,0.0,96,0.00,,,0.05,fowsr,2013-06-22 04:40:00,
2013-06-22 00:45:00,72.1,71.2,29.80,NW,315,0.0,0.0,96,0.00,,,0.05,fowsr,2013-06-22 04:45:00,
2013-06-22 00:50:00,72.0,71.0,29.79,NW,315,0.0,0.0,96,0.00,,,0.05,fowsr,2013-06-22 04:50:00,
2013-06-22 00:55:00,72.0,71.0,29.79,NW,315,0.0,0.0,96,0.00,,,0.05,fowsr,2013-06-22 04:55:00,
2013-06-22 01:00:00,72.0,71.0,29.79,NW,315,0.0,0.0,96,0.00,,,0.05,fowsr,2013-06-22 05:00:00,
2013-06-22 01:05:00,72.0,71.0,29.78,NW,315,0.0,0.0,96,0.00,,,0.05,fowsr,2013-06-22 05:05:00,
2013-06-22 01:10:00,71.8,70.8,29.78,NW,315,0.0,0.0,96,0.00,,,0.05,fowsr,2013-06-22 05:10:00,
2013-06-22 01:15:00,71.8,71.1,29.78,NW,315,0.0,0.0,97,0.00,,,0.05,fowsr,2013-06-22 05:15:00,
2013-06-22 01:20:00,71.8,71.1,29.78,NW,315,0.0,0.0,97,0.00,,,0.05,fowsr,2013-06-22 05:20:00,
2013-06-22 01:25:00,71.8,71.1,29.78,NW,315,0.0,0.0,97,0.00,,,0.05,fowsr,2013-06-22 05:25:00,
2013-06-22 01:30:00,71.8,71.1,29.77,NW,315,0.0,0.0,97,0.00,,,0.05,fowsr,2013-06-22 05:30:00,
2013-06-22 01:35:00,71.8,71.1,29.77,NW,315,0.0,0.0,97,0.00,,,0.05,fowsr,2013-06-22 05:35:00,
2013-06-22 01:40:00,71.8,71.1,29.77,NW,315,0.0,0.0,97,0.00,,,0.05,fowsr,2013-06-22 05:40:00,
2013-06-22 01:45:00,71.8,71.1,29.77,NW,315,0.0,0.0,97,0.00,,,0.05,fowsr,2013-06-22 05:45:00,
2013-06-22 01:50:00,71.6,70.9,29.77,NW,315,0.0,0.0,97,0.00,,,0.05,fowsr,2013-06-22 05:50:00,
2013-06-22 01:55:00,71.6,70.9,29.76,NW,315,0.0,0.0,97,0.00,,,0.05,fowsr,2013-06-22 05:55:00,
2013-06-22 02:00:00,71.6,70.9,29.76,NW,315,0.0,0.0,97,0.00,,,0.05,fowsr,2013-06-22 06:00:00,
2013-06-22 02:05:00,71.6,70.9,29.76,NW,315,0.0,0.0,97,0.00,,,0.05,fowsr,2013-06-22 06:05:00,
2013-06-22 02:10:00,71.4,71.0,29.76,NW,315,0.0,0.0,98,0.00,,,0.05,fowsr,2013-06-22 06:10:00,
2013-06-22 02:15:00,71.4,71.0,29.76,NW,315,0.0,0.0,98,0.00,,,0.05,fowsr,2013-06-22 06:15:00,
2013-06-22 02:20:00,71.6,70.9,29.76,NW,315,0.0,0.0,97,0.00,,,0.05,fowsr,2013-06-22 06:20:00,
2013-06-22 02:25:00,71.6,70.9,29.76,NW,315,0.0,0.0,97,0.00,,,0.05,fowsr,2013-06-22 06:25:00,
2013-06-22 02:30:00,71.6,70.9,29.76,NW,315,0.0,0.0,97,0.00,,,0.05,fowsr,2013-06-22 06:30:00,
2013-06-22 02:35:00,71.6,70.9,29.77,NW,315,0.0,0.0,97,0.00,,,0.05,fowsr,2013-06-22 06:35:00,
2013-06-22 02:40:00,71.4,71.0,29.77,NW,315,0.0,0.0,98,0.00,,,0.05,fowsr,2013-06-22 06:40:00,
2013-06-22 02:45:00,71.4,71.0,29.76,NW,315,0.0,0.0,98,0.00,,,0.05,fowsr,2013-06-22 06:45:00,
2013-06-22 02:50:00,71.6,70.9,29.76,NW,315,0.0,0.0,97,0.00,,,0.05,fowsr,2013-06-22 06:50:00,
2013-06-22 02:55:00,71.6,70.9,29.77,NW,315,0.0,0.0,97,0.00,,,0.05,fowsr,2013-06-22 06:55:00,
2013-06-22 03:00:00,71.6,70.9,29.76,NW,315,0.0,0.0,97,0.00,,,0.05,fowsr,2013-06-22 07:00:00,
2013-06-22 03:05:00,71.2,70.8,29.76,NW,315,0.0,0.0,98,0.00,,,0.05,fowsr,2013-06-22 07:05:00,
2013-06-22 03:10:00,71.1,70.6,29.76,NW,315,0.0,0.0,98,0.00,,,0.05,fowsr,2013-06-22 07:10:00,
2013-06-22 03:15:00,70.9,70.4,29.75,NW,315,0.0,0.0,98,0.00,,,0.05,fowsr,2013-06-22 07:15:00,
2013-06-22 03:20:00,71.1,70.6,29.75,NW,315,0.0,0.0,98,0.00,,,0.05,fowsr,2013-06-22 07:20:00,
2013-06-22 03:25:00,71.1,70.6,29.75,NW,315,0.0,0.0,98,0.00,,,0.05,fowsr,2013-06-22 07:25:00,
2013-06-22 03:30:00,70.9,70.4,29.76,NW,315,0.0,0.0,98,0.00,,,0.05,fowsr,2013-06-22 07:30:00,
2013-06-22 03:35:00,70.7,70.2,29.75,NW,315,0.0,0.0,98,0.00,,,0.05,fowsr,2013-06-22 07:35:00,
2013-06-22 03:40:00,70.7,70.2,29.76,NW,315,0.0,0.0,98,0.00,,,0.05,fowsr,2013-06-22 07:40:00,
2013-06-22 03:45:00,70.9,70.4,29.75,NW,315,0.0,0.0,98,0.00,,,0.05,fowsr,2013-06-22 07:45:00,
2013-06-22 03:50:00,71.1,70.6,29.75,NW,315,0.0,0.0,98,0.00,,,0.05,fowsr,2013-06-22 07:50:00,
2013-06-22 03:55:00,71.1,70.6,29.75,NW,315,0.0,0.0,98,0.00,,,0.05,fowsr,2013-06-22 07:55:00,
2013-06-22 04:00:00,71.1,70.6,29.75,NW,315,0.0,0.0,98,0.00,,,0.05,fowsr,2013-06-22 08:00:00,
2013-06-22 04:05:00,71.1,70.6,29.76,NW,315,0.0,0.0,98,0.00,,,0.05,fowsr,2013-06-22 08:05:00,
2013-06-22 04:10:00,71.2,70.8,29.75,NW,315,0.0,0.0,98,0.00,,,0.05,fowsr,2013-06-22 08:10:00,
2013-06-22 04:15:00,71.1,70.6,29.76,NW,315,0.0,0.0,98,0.00,,,0.05,fowsr,2013-06-22 08:15:00,
2013-06-22 04:20:00,71.1,70.6,29.76,NW,315,0.0,0.0,98,0.00,,,0.05,fowsr,2013-06-22 08:20:00,
2013-06-22 04:25:00,71.1,70.6,29.76,NW,315,0.0,0.0,98,0.00,,,0.05,fowsr,2013-06-22 08:25:00,
2013-06-22 04:30:00,71.1,70.6,29.75,NW,315,0.0,0.0,98,0.00,,,0.05,fowsr,2013-06-22 08:30:00,
2013-06-22 04:35:00,71.1,70.6,29.75,NW,315,0.0,0.0,98,0.00,,,0.05,fowsr,2013-06-22 08:35:00,
2013-06-22 04:40:00,71.1,70.6,29.75,NW,315,0.0,0.0,98,0.00,,,0.05,fowsr,2013-06-22 08:40:00,
2013-06-22 04:45:00,71.1,70.6,29.76,NW,315,0.0,0.0,98,0.00,,,0.05,fowsr,2013-06-22 08:45:00,
2013-06-22 04:50:00,70.9,70.4,29.75,NW,315,0.0,0.0,98,0.00,,,0.05,fowsr,2013-06-22 08:50:00,
2013-06-22 04:55:00,70.7,70.2,29.76,NW,315,0.0,0.0,98,0.00,,,0.05,fowsr,2013-06-22 08:55:00,
2013-06-22 05:00:00,70.5,70.1,29.75,NW,315,0.0,0.0,98,0.00,,,0.05,fowsr,2013-06-22 09:00:00,
2013-06-22 05:05:00,70.5,70.1,29.76,NW,315,0.0,0.0,98,0.00,,,0.05,fowsr,2013-06-22 09:05:00,
2013-06-22 05:10:00,70.7,70.2,29.76,NW,315,0.0,0.0,98,0.00,,,0.05,fowsr,2013-06-22 09:10:00,
2013-06-22 05:20:00,70.9,70.4,29.76,NW,315,0.0,0.0,98,0.00,,,0.05,fowsr,2013-06-22 09:20:00,
2013-06-22 05:25:00,70.9,70.4,29.77,NW,315,0.0,0.0,98,0.00,,,0.05,fowsr,2013-06-22 09:25:00,
2013-06-22 05:30:00,70.7,70.2,29.77,NW,315,0.0,0.0,98,0.00,,,0.05,fowsr,2013-06-22 09:30:00,
2013-06-22 05:35:00,70.7,70.2,29.77,NW,315,0.0,0.0,98,0.00,,,0.05,fowsr,2013-06-22 09:35:00,
2013-06-22 05:40:00,70.7,70.2,29.76,NW,315,0.0,0.0,98,0.00,,,0.05,fowsr,2013-06-22 09:40:00,
2013-06-22 05:45:00,70.7,70.2,29.77,NW,315,0.0,0.0,98,0.00,,,0.05,fowsr,2013-06-22 09:45:00,
2013-06-22 05:50:00,70.7,70.2,29.77,NW,315,0.0,0.0,98,0.00,,,0.05,fowsr,2013-06-22 09:50:00,
2013-06-22 05:55:00,70.7,70.2,29.77,NW,315,0.0,0.0,98,0.00,,,0.05,fowsr,2013-06-22 09:55:00,
2013-06-22 06:00:00,70.5,70.1,29.77,NW,315,0.0,0.0,98,0.00,,,0.05,fowsr,2013-06-22 10:00:00,
2013-06-22 06:05:00,70.5,70.1,29.77,NW,315,0.0,0.0,98,0.00,,,0.05,fowsr,2013-06-22 10:05:00,
2013-06-22 06:10:00,70.5,70.1,29.77,NW,315,0.0,0.0,98,0.00,,,0.05,fowsr,2013-06-22 10:10:00,
2013-06-22 06:15:00,70.7,70.2,29.77,NW,315,0.0,0.0,98,0.00,,,0.05,fowsr,2013-06-22 10:15:00,
2013-06-22 06:20:00,70.9,70.4,29.77,NW,315,0.0,0.0,98,0.00,,,0.05,fowsr,2013-06-22 10:20:00,
2013-06-22 06:25:00,71.1,70.6,29.77,NW,315,0.0,0.0,98,0.00,,,0.05,fowsr,2013-06-22 10:25:00,
2013-06-22 06:30:00,71.1,70.6,29.77,NW,315,0.0,0.0,98,0.00,,,0.05,fowsr,2013-06-22 10:30:00,
2013-06-22 06:35:00,71.1,70.6,29.77,NW,315,0.0,0.0,98,0.00,,,0.05,fowsr,2013-06-22 10:35:00,
2013-06-22 06:40:00,71.2,70.8,29.77,NW,315,0.0,0.0,98,0.00,,,0.05,fowsr,2013-06-22 10:40:00,
2013-06-22 06:45:00,71.8,71.1,29.77,NW,315,0.0,0.0,97,0.00,,,0.05,fowsr,2013-06-22 10:45:00,
2013-06-22 06:50:00,71.8,71.1,29.77,NW,315,0.0,0.0,97,0.00,,,0.05,fowsr,2013-06-22 10:50:00,
2013-06-22 06:55:00,72.1,71.4,29.77,NW,315,0.0,0.0,97,0.00,,,0.05,fowsr,2013-06-22 10:55:00,
2013-06-22 07:00:00,72.3,71.6,29.77,NW,315,0.0,0.0,97,0.00,,,0.05,fowsr,2013-06-22 11:00:00,
2013-06-22 07:05:00,72.5,71.8,29.77,NW,315,0.0,0.0,97,0.00,,,0.05,fowsr,2013-06-22 11:05:00,
2013-06-22 07:10:00,72.9,72.1,29.77,NW,315,0.0,0.0,97,0.00,,,0.05,fowsr,2013-06-22 11:10:00,
2013-06-22 07:15:00,73.2,72.5,29.77,NW,315,0.0,0.0,97,0.00,,,0.05,fowsr,2013-06-22 11:15:00,
2013-06-22 07:20:00,73.8,73.5,29.77,NW,315,0.0,0.0,99,0.00,,,0.05,fowsr,2013-06-22 11:20:00,
2013-06-22 07:25:00,74.3,74.1,29.78,NW,315,0.0,0.0,99,0.00,,,0.05,fowsr,2013-06-22 11:25:00,
2013-06-22 07:30:00,74.7,74.4,29.78,North,0,0.0,0.0,99,0.00,,,0.05,fowsr,2013-06-22 11:30:00,
2013-06-22 07:35:00,75.2,74.7,29.78,North,0,0.0,0.0,98,0.00,,,0.05,fowsr,2013-06-22 11:35:00,
2013-06-22 07:40:00,76.1,75.6,29.78,North,0,0.0,0.7,98,0.00,,,0.05,fowsr,2013-06-22 11:40:00,
2013-06-22 07:45:00,77.2,76.4,29.79,SW,225,0.0,0.7,97,0.00,,,0.05,fowsr,2013-06-22 11:45:00,
2013-06-22 07:50:00,78.4,77.4,29.79,East,90,0.0,0.0,96,0.00,,,0.05,fowsr,2013-06-22 11:50:00,
2013-06-22 07:55:00,79.3,77.8,29.79,NNW,337,0.7,1.6,94,0.00,,,0.05,fowsr,2013-06-22 11:55:00,
2013-06-22 08:00:00,79.3,77.0,29.79,North,0,0.0,2.2,91,0.00,,,0.05,fowsr,2013-06-22 12:00:00,
2013-06-22 08:05:00,79.3,77.0,29.79,North,0,0.0,2.2,91,0.00,,,0.05,fowsr,2013-06-22 12:05:00,
2013-06-22 08:10:00,81.3,77.3,29.79,North,0,1.6,2.2,85,0.00,,,0.05,fowsr,2013-06-22 12:10:00,
2013-06-22 08:15:00,82.4,77.8,29.80,NW,315,0.0,1.6,83,0.00,,,0.05,fowsr,2013-06-22 12:15:00,
2013-06-22 08:20:00,83.5,78.0,29.80,NNE,22,0.0,1.6,80,0.00,,,0.05,fowsr,2013-06-22 12:20:00,
2013-06-22 08:25:00,84.0,77.9,29.80,North,0,0.7,2.2,78,0.00,,,0.05,fowsr,2013-06-22 12:25:00,
2013-06-22 08:30:00,84.6,77.8,29.80,NE,45,0.0,0.0,76,0.00,,,0.05,fowsr,2013-06-22 12:30:00,
2013-06-22 08:35:00,85.3,78.1,29.81,North,0,0.7,1.6,75,0.00,,,0.05,fowsr,2013-06-22 12:35:00,
2013-06-22 08:40:00,85.5,78.0,29.81,North,0,2.2,3.8,74,0.00,,,0.05,fowsr,2013-06-22 12:40:00,
2013-06-22 08:45:00,85.1,77.6,29.81,North,0,0.7,2.2,74,0.00,,,0.05,fowsr,2013-06-22 12:45:00,
2013-06-22 08:50:00,85.8,78.3,29.80,NW,315,1.6,3.8,74,0.00,,,0.05,fowsr,2013-06-22 12:50:00,
2013-06-22 08:55:00,86.0,77.8,29.81,NW,315,2.2,3.1,72,0.00,,,0.05,fowsr,2013-06-22 12:55:00,
2013-06-22 09:00:00,86.2,77.7,29.81,NW,315,1.6,3.1,71,0.00,,,0.05,fowsr,2013-06-22 13:00:00,
2013-06-22 09:05:00,86.4,77.5,29.81,North,0,1.6,2.2,70,0.00,,,0.05,fowsr,2013-06-22 13:05:00,
2013-06-22 09:10:00,87.4,78.9,29.81,NW,315,0.0,0.7,71,0.00,,,0.05,fowsr,2013-06-22 13:10:00,
2013-06-22 09:15:00,88.9,78.8,29.81,North,0,0.7,2.2,67,0.00,,,0.05,fowsr,2013-06-22 13:15:00,
2013-06-22 09:20:00,88.9,78.4,29.81,North,0,2.2,4.5,66,0.00,,,0.05,fowsr,2013-06-22 13:20:00,
2013-06-22 09:25:00,88.0,77.6,29.81,NW,315,2.2,4.5,66,0.00,,,0.05,fowsr,2013-06-22 13:25:00,
2013-06-22 09:30:00,87.8,77.4,29.81,NE,45,2.2,3.1,66,0.00,,,0.05,fowsr,2013-06-22 13:30:00,
2013-06-22 09:35:00,88.5,78.5,29.81,North,0,0.7,1.6,67,0.00,,,0.05,fowsr,2013-06-22 13:35:00,
2013-06-22 09:40:00,89.2,78.8,29.81,NW,315,2.2,4.5,66,0.00,,,0.05,fowsr,2013-06-22 13:40:00,
2013-06-22 09:45:00,87.8,77.0,29.81,SW,225,2.2,3.1,65,0.00,,,0.05,fowsr,2013-06-22 13:45:00,
2013-06-22 09:50:00,86.5,76.6,29.81,NW,315,2.2,4.5,67,0.00,,,0.05,fowsr,2013-06-22 13:50:00,
2013-06-22 09:55:00,88.0,78.0,29.81,North,0,0.7,1.6,67,0.00,,,0.05,fowsr,2013-06-22 13:55:00,
2013-06-22 10:00:00,89.4,78.6,29.81,NE,45,2.2,4.5,65,0.00,,,0.05,fowsr,2013-06-22 14:00:00,
2013-06-22 10:05:00,89.4,78.6,29.81,NE,45,2.2,4.5,65,0.00,,,0.05,fowsr,2013-06-22 14:05:00,
2013-06-22 10:10:00,89.8,77.8,29.82,NE,45,0.7,2.2,62,0.00,,,0.05,fowsr,2013-06-22 14:10:00,
2013-06-22 10:15:00,89.4,77.8,29.81,North,0,1.6,3.8,63,0.00,,,0.05,fowsr,2013-06-22 14:15:00,
2013-06-22 10:20:00,88.2,77.0,29.81,North,0,1.6,3.1,64,0.00,,,0.05,fowsr,2013-06-22 14:20:00,
2013-06-22 10:25:00,88.0,76.8,29.81,West,270,0.7,1.6,64,0.00,,,0.05,fowsr,2013-06-22 14:25:00,
2013-06-22 10:30:00,88.5,77.0,29.82,North,0,0.0,0.7,63,0.00,,,0.05,fowsr,2013-06-22 14:30:00,
2013-06-22 10:35:00,89.8,77.4,29.81,North,0,0.7,2.2,61,0.00,,,0.05,fowsr,2013-06-22 14:35:00,
2013-06-22 10:40:00,91.9,77.7,29.81,NE,45,3.1,3.8,57,0.00,,,0.05,fowsr,2013-06-22 14:40:00,
2013-06-22 10:45:00,92.7,77.9,29.82,NW,315,2.2,3.8,56,0.01,,,0.06,fowsr,2013-06-22 14:45:00,
2013-06-22 10:55:00,92.3,77.6,29.81,NE,45,2.2,3.8,56,0.01,,,0.06,fowsr,2013-06-22 14:55:00,
2013-06-22 11:00:00,92.7,76.6,29.82,North,0,0.0,0.7,53,0.01,,,0.06,fowsr,2013-06-22 15:00:00,
2013-06-22 11:05:00,93.0,76.9,29.82,NW,315,2.2,3.8,53,0.01,,,0.06,fowsr,2013-06-22 15:05:00,
2013-06-22 11:10:00,91.6,76.9,29.82,North,0,1.6,3.1,56,0.01,,,0.06,fowsr,2013-06-22 15:10:00,
2013-06-22 11:15:00,92.1,76.1,29.81,NW,315,1.6,3.1,53,0.01,,,0.06,fowsr,2013-06-22 15:15:00,
2013-06-22 11:20:00,92.3,76.7,29.82,SE,135,1.6,3.1,54,0.01,,,0.06,fowsr,2013-06-22 15:20:00,
2013-06-22 11:25:00,93.4,76.3,29.81,South,180,0.7,2.2,51,0.01,,,0.06,fowsr,2013-06-22 15:25:00,
2013-06-22 11:30:00,93.6,75.5,29.82,NE,45,1.6,3.1,49,0.01,,,0.06,fowsr,2013-06-22 15:30:00,
2013-06-22 11:35:00,92.5,75.5,29.81,North,0,1.6,2.2,51,0.01,,,0.06,fowsr,2013-06-22 15:35:00,
2013-06-22 11:40:00,92.5,76.4,29.81,NW,315,0.7,2.2,53,0.01,,,0.06,fowsr,2013-06-22 15:40:00,
2013-06-22 11:45:00,92.8,77.2,29.81,North,0,0.0,0.7,54,0.01,,,0.06,fowsr,2013-06-22 15:45:00,
2013-06-22 11:50:00,94.5,76.8,29.81,SW,225,0.7,1.6,50,0.00,,,0.06,fowsr,2013-06-22 15:50:00,
2013-06-22 11:55:00,95.5,77.3,29.81,NE,45,1.6,3.1,49,0.00,,,0.06,fowsr,2013-06-22 15:55:00,
2013-06-22 12:00:00,95.9,76.1,29.82,SE,135,0.7,1.6,46,0.00,,,0.06,fowsr,2013-06-22 16:00:00,
2013-06-22 12:05:00,95.9,76.1,29.82,SE,135,0.7,1.6,46,0.00,,,0.06,fowsr,2013-06-22 16:05:00,
2013-06-22 12:10:00,95.5,75.8,29.81,SE,135,1.6,3.1,46,0.00,,,0.06,fowsr,2013-06-22 16:10:00,
2013-06-22 12:15:00,96.1,76.3,29.81,NE,45,2.2,3.8,46,0.00,,,0.06,fowsr,2013-06-22 16:15:00,
2013-06-22 12:20:00,95.5,75.8,29.81,NW,315,2.2,3.8,46,0.00,,,0.06,fowsr,2013-06-22 16:20:00,
2013-06-22 12:25:00,94.8,76.2,29.81,West,270,3.1,5.4,48,0.00,,,0.06,fowsr,2013-06-22 16:25:00,
2013-06-22 12:30:00,93.9,75.9,29.81,NW,315,0.7,1.6,49,0.00,,,0.06,fowsr,2013-06-22 16:30:00,
2013-06-22 12:35:00,93.2,74.2,29.80,North,0,2.2,3.1,47,0.00,,,0.06,fowsr,2013-06-22 16:35:00,
2013-06-22 12:40:00,93.2,74.7,29.80,North,0,0.7,1.6,48,0.00,,,0.06,fowsr,2013-06-22 16:40:00,
2013-06-22 12:45:00,93.0,75.0,29.80,North,0,3.1,4.5,49,0.00,,,0.06,fowsr,2013-06-22 16:45:00,
2013-06-22 12:50:00,93.4,74.9,29.81,NW,315,2.2,5.4,48,0.00,,,0.06,fowsr,2013-06-22 16:50:00,
2013-06-22 12:55:00,93.6,75.5,29.80,South,180,1.6,3.1,49,0.00,,,0.06,fowsr,2013-06-22 16:55:00,
2013-06-22 13:00:00,94.3,75.7,29.80,NE,45,2.2,3.8,48,0.00,,,0.06,fowsr,2013-06-22 17:00:00,
2013-06-22 13:05:00,93.9,75.9,29.81,North,0,1.6,2.2,49,0.00,,,0.06,fowsr,2013-06-22 17:05:00,
2013-06-22 13:10:00,93.6,75.5,29.80,SE,135,0.7,3.1,49,0.00,,,0.06,fowsr,2013-06-22 17:10:00,
2013-06-22 13:15:00,95.0,76.8,29.80,East,90,0.7,2.2,49,0.00,,,0.06,fowsr,2013-06-22 17:15:00,
2013-06-22 13:20:00,95.5,76.8,29.80,North,0,1.6,2.2,48,0.00,,,0.06,fowsr,2013-06-22 17:20:00,
2013-06-22 13:25:00,95.9,76.1,29.80,NNE,22,4.5,6.9,46,0.00,,,0.06,fowsr,2013-06-22 17:25:00,
2013-06-22 13:30:00,95.2,75.5,29.79,North,0,1.6,3.1,46,0.00,,,0.06,fowsr,2013-06-22 17:30:00,
2013-06-22 13:35:00,94.8,75.7,29.79,North,0,3.8,5.4,47,0.00,,,0.06,fowsr,2013-06-22 17:35:00,
2013-06-22 13:40:00,94.1,74.5,29.79,East,90,0.7,3.1,46,0.00,,,0.06,fowsr,2013-06-22 17:40:00,
2013-06-22 13:45:00,93.4,73.3,29.79,West,270,0.7,1.6,45,0.00,,,0.06,fowsr,2013-06-22 17:45:00,
2013-06-22 13:55:00,91.8,73.9,29.79,NW,315,1.6,3.8,49,0.00,,,0.06,fowsr,2013-06-22 17:55:00,
2013-06-22 14:00:00,92.8,73.9,29.79,NE,45,0.7,2.2,47,0.00,,,0.06,fowsr,2013-06-22 18:00:00,
2013-06-22 14:05:00,92.8,73.9,29.79,NE,45,0.7,2.2,47,0.00,,,0.06,fowsr,2013-06-22 18:05:00,
2013-06-22 14:10:00,93.2,72.7,29.79,NE,45,2.2,4.5,44,0.00,,,0.06,fowsr,2013-06-22 18:10:00,
2013-06-22 14:15:00,92.8,73.4,29.78,West,270,1.6,2.2,46,0.00,,,0.06,fowsr,2013-06-22 18:15:00,
2013-06-22 14:20:00,93.4,72.8,29.78,NW,315,1.6,2.2,44,0.00,,,0.06,fowsr,2013-06-22 18:20:00,
2013-06-22 14:25:00,92.5,73.1,29.78,North,0,0.0,0.7,46,0.00,,,0.06,fowsr,2013-06-22 18:25:00,
2013-06-22 14:30:00,91.8,73.4,29.78,East,90,2.2,3.8,48,0.00,,,0.06,fowsr,2013-06-22 18:30:00,
2013-06-22 14:35:00,89.6,74.7,29.78,SE,135,1.6,3.8,55,0.00,,,0.06,fowsr,2013-06-22 18:35:00,
2013-06-22 14:40:00,88.9,76.1,29.78,NE,45,1.6,3.1,60,0.00,,,0.06,fowsr,2013-06-22 18:40:00,
2013-06-22 14:50:00,88.0,75.3,29.78,NNE,22,0.0,0.7,60,0.00,,,0.06,fowsr,2013-06-22 18:50:00,
2013-06-22 14:55:00,87.1,75.2,29.78,North,0,0.0,0.7,62,0.00,,,0.06,fowsr,2013-06-22 18:55:00,
2013-06-22 15:00:00,86.9,75.1,29.78,North,0,0.7,1.6,62,0.00,,,0.06,fowsr,2013-06-22 19:00:00,
2013-06-22 15:05:00,87.6,75.0,29.77,East,90,0.0,0.7,60,0.00,,,0.06,fowsr,2013-06-22 19:05:00,
2013-06-22 15:10:00,88.9,75.3,29.77,East,90,0.0,0.7,58,0.00,,,0.06,fowsr,2013-06-22 19:10:00,
2013-06-22 15:15:00,89.1,75.1,29.77,East,90,0.0,0.7,57,0.00,,,0.06,fowsr,2013-06-22 19:15:00,
2013-06-22 15:20:00,90.5,75.5,29.77,North,0,0.7,2.2,55,0.00,,,0.06,fowsr,2013-06-22 19:20:00,
2013-06-22 15:25:00,92.8,75.4,29.77,East,90,0.7,1.6,50,0.00,,,0.06,fowsr,2013-06-22 19:25:00,
2013-06-22 15:30:00,94.8,75.7,29.76,NE,45,1.6,2.2,47,0.00,,,0.06,fowsr,2013-06-22 19:30:00,
2013-06-22 15:35:00,95.5,75.8,29.76,East,90,1.6,3.1,46,0.00,,,0.06,fowsr,2013-06-22 19:35:00,
2013-06-22 15:40:00,95.4,74.0,29.76,NW,315,0.0,0.7,43,0.00,,,0.06,fowsr,2013-06-22 19:40:00,
2013-06-22 15:45:00,96.6,73.4,29.76,SE,135,0.0,0.0,40,0.00,,,0.06,fowsr,2013-06-22 19:45:00,
2013-06-22 15:50:00,98.1,75.8,29.76,SW,225,0.7,2.2,42,0.00,,,0.06,fowsr,2013-06-22 19:50:00,
2013-06-22 15:55:00,97.7,74.3,29.76,North,0,1.6,2.2,40,0.00,,,0.06,fowsr,2013-06-22 19:55:00,
2013-06-22 16:00:00,97.0,69.9,29.76,NNW,337,2.2,4.5,34,0.00,,,0.06,fowsr,2013-06-22 20:00:00,
2013-06-22 16:05:00,97.0,69.9,29.75,NNW,337,2.2,4.5,34,0.00,,,0.06,fowsr,2013-06-22 20:05:00,
2013-06-22 16:10:00,96.8,71.1,29.76,West,270,0.7,1.6,36,0.00,,,0.06,fowsr,2013-06-22 20:10:00,
2013-06-22 16:15:00,96.6,71.6,29.75,West,270,1.6,3.1,37,0.00,,,0.06,fowsr,2013-06-22 20:15:00,
2013-06-22 16:20:00,96.4,72.0,29.75,NW,315,1.6,3.1,38,0.00,,,0.06,fowsr,2013-06-22 20:20:00,
2013-06-22 16:25:00,95.9,71.6,29.75,SE,135,0.7,3.1,38,0.00,,,0.06,fowsr,2013-06-22 20:25:00,
2013-06-22 16:30:00,96.4,73.2,29.75,East,90,0.7,1.6,40,0.00,,,0.06,fowsr,2013-06-22 20:30:00,
2013-06-22 16:35:00,97.0,73.7,29.75,NNE,22,2.2,3.8,40,0.00,,,0.06,fowsr,2013-06-22 20:35:00,
2013-06-22 16:40:00,95.9,72.2,29.75,North,0,0.7,2.2,39,0.00,,,0.06,fowsr,2013-06-22 20:40:00,
2013-06-22 16:45:00,95.9,72.8,29.75,South,180,1.6,2.2,40,0.00,,,0.06,fowsr,2013-06-22 20:45:00,
2013-06-22 16:50:00,97.2,73.3,29.75,North,0,0.7,1.6,39,0.00,,,0.06,fowsr,2013-06-22 20:50:00,
2013-06-22 16:55:00,97.9,74.5,29.74,NE,45,1.6,3.1,40,0.00,,,0.06,fowsr,2013-06-22 20:55:00,
2013-06-22 17:00:00,97.3,74.0,29.74,North,0,1.6,3.8,40,0.00,,,0.06,fowsr,2013-06-22 21:00:00,
2013-06-22 17:05:00,96.3,73.7,29.74,NE,45,0.7,2.2,41,0.00,,,0.06,fowsr,2013-06-22 21:05:00,
2013-06-22 17:10:00,96.4,75.5,29.74,NW,315,1.6,3.1,44,0.00,,,0.06,fowsr,2013-06-22 21:10:00,
2013-06-22 17:15:00,94.5,74.3,29.74,North,0,1.6,3.1,45,0.00,,,0.06,fowsr,2013-06-22 21:15:00,
2013-06-22 17:20:00,92.8,74.4,29.74,NW,315,0.7,2.2,48,0.00,,,0.06,fowsr,2013-06-22 21:20:00,
2013-06-22 17:25:00,92.7,74.2,29.74,NW,315,2.2,3.1,48,0.00,,,0.06,fowsr,2013-06-22 21:25:00,
2013-06-22 17:30:00,91.4,74.1,29.74,NE,45,2.2,4.5,50,0.00,,,0.06,fowsr,2013-06-22 21:30:00,
2013-06-22 17:35:00,90.5,73.7,29.74,West,270,0.0,0.7,51,0.00,,,0.06,fowsr,2013-06-22 21:35:00,
2013-06-22 17:40:00,90.0,74.2,29.74,West,270,0.7,2.2,53,0.00,,,0.06,fowsr,2013-06-22 21:40:00,
2013-06-22 17:45:00,89.1,75.5,29.74,South,180,0.0,0.7,58,0.00,,,0.06,fowsr,2013-06-22 21:45:00,
2013-06-22 17:50:00,87.8,74.7,29.74,SW,225,0.0,0.7,59,0.00,,,0.06,fowsr,2013-06-22 21:50:00,
2013-06-22 17:55:00,87.3,75.8,29.74,NW,315,0.0,0.7,63,0.00,,,0.06,fowsr,2013-06-22 21:55:00,
2013-06-22 18:00:00,86.7,75.7,29.74,SW,225,0.0,1.6,64,0.00,,,0.06,fowsr,2013-06-22 22:00:00,
2013-06-22 18:05:00,86.7,75.7,29.74,SW,225,0.0,1.6,64,0.00,,,0.06,fowsr,2013-06-22 22:05:00,
2013-06-22 18:10:00,85.8,75.9,29.73,ESE,112,0.7,2.2,67,0.00,,,0.05,fowsr,2013-06-22 22:10:00,
2013-06-22 18:15:00,85.3,75.4,29.74,West,270,0.7,2.2,67,0.00,,,0.05,fowsr,2013-06-22 22:15:00,
2013-06-22 18:20:00,85.1,75.2,29.74,SW,225,0.0,0.7,67,0.00,,,0.04,fowsr,2013-06-22 22:20:00,
2013-06-22 18:25:00,84.9,75.4,29.74,SW,225,0.0,0.7,68,0.00,,,0.04,fowsr,2013-06-22 22:25:00,
2013-06-22 18:30:00,84.9,75.4,29.74,North,0,0.0,1.6,68,0.00,,,0.04,fowsr,2013-06-22 22:30:00,
2013-06-22 18:35:00,84.9,75.1,29.74,SW,225,0.0,1.6,67,0.00,,,0.04,fowsr,2013-06-22 22:35:00,
2013-06-22 18:40:00,84.7,75.3,29.74,SW,225,0.7,2.2,68,0.00,,,0.04,fowsr,2013-06-22 22:40:00,
2013-06-22 18:45:00,84.4,74.9,29.74,West,270,0.7,1.6,68,0.00,,,0.04,fowsr,2013-06-22 22:45:00,
2013-06-22 18:50:00,83.8,75.1,29.75,North,0,0.0,0.7,70,0.00,,,0.04,fowsr,2013-06-22 22:50:00,
2013-06-22 18:55:00,83.7,74.9,29.75,SW,225,0.0,0.0,70,0.00,,,0.02,fowsr,2013-06-22 22:55:00,
2013-06-22 19:00:00,83.5,75.1,29.75,SW,225,0.0,0.0,71,0.00,,,0.02,fowsr,2013-06-22 23:00:00,
2013-06-22 19:05:00,83.3,74.9,29.75,East,90,0.0,0.0,71,0.00,,,0.01,fowsr,2013-06-22 23:05:00,
2013-06-22 19:10:00,83.1,75.4,29.75,SW,225,0.0,0.0,73,0.00,,,0.01,fowsr,2013-06-22 23:10:00,
2013-06-22 19:15:00,82.9,75.2,29.75,NE,45,0.7,2.2,73,0.00,,,0.01,fowsr,2013-06-22 23:15:00,
2013-06-22 19:20:00,82.8,75.4,29.75,South,180,1.6,3.1,74,0.00,,,0.01,fowsr,2013-06-22 23:20:00,
2013-06-22 19:25:00,82.4,75.4,29.75,SW,225,0.0,0.0,75,0.00,,,0.01,fowsr,2013-06-22 23:25:00,
2013-06-22 19:30:00,82.2,75.2,29.75,West,270,0.0,0.7,75,0.00,,,0.01,fowsr,2013-06-22 23:30:00,
2013-06-22 19:35:00,82.0,75.0,29.75,South,180,0.0,0.0,75,0.00,,,0.01,fowsr,2013-06-22 23:35:00,
2013-06-22 19:40:00,81.9,75.2,29.76,South,180,0.0,0.7,76,0.00,,,0.01,fowsr,2013-06-22 23:40:00,
2013-06-22 19:45:00,81.9,75.2,29.76,SW,225,0.0,0.7,76,0.00,,,0.01,fowsr,2013-06-22 23:45:00,
2013-06-22 19:50:00,81.7,75.3,29.75,SW,225,0.0,0.0,77,0.00,,,0.01,fowsr,2013-06-22 23:50:00,
2013-06-22 19:55:00,81.5,75.1,29.76,SW,225,0.0,0.0,77,0.00,,,0.01,fowsr,2013-06-22 23:55:00,
2013-06-22 20:00:00,81.5,75.1,29.76,North,0,0.7,1.6,77,0.00,,,0.01,fowsr,2013-06-23 00:00:00,
2013-06-22 20:05:00,81.5,75.1,29.75,North,0,0.7,1.6,77,0.00,,,0.01,fowsr,2013-06-23 00:05:00,
2013-06-22 20:10:00,81.0,74.9,29.76,SW,225,0.0,0.0,78,0.00,,,0.01,fowsr,2013-06-23 00:10:00,
2013-06-22 20:15:00,80.6,74.9,29.76,SW,225,0.0,0.0,79,0.00,,,0.01,fowsr,2013-06-23 00:15:00,
2013-06-22 20:20:00,80.4,75.3,29.76,SW,225,0.0,0.0,81,0.00,,,0.01,fowsr,2013-06-23 00:20:00,
2013-06-22 20:25:00,80.2,75.1,29.76,SW,225,0.0,0.0,81,0.00,,,0.01,fowsr,2013-06-23 00:25:00,
2013-06-22 20:30:00,80.1,75.0,29.76,NE,45,0.0,0.0,81,0.00,,,0.01,fowsr,2013-06-23 00:30:00,
2013-06-22 20:35:00,79.7,74.6,29.76,NW,315,0.0,0.0,81,0.00,,,0.01,fowsr,2013-06-23 00:35:00,
2013-06-22 20:40:00,79.7,74.6,29.76,North,0,0.0,0.0,81,0.00,,,0.01,fowsr,2013-06-23 00:40:00,
2013-06-22 20:45:00,79.5,74.4,29.76,South,180,0.0,0.0,81,0.00,,,0.01,fowsr,2013-06-23 00:45:00,
2013-06-22 20:50:00,79.5,74.7,29.76,South,180,0.0,0.0,82,0.00,,,0.01,fowsr,2013-06-23 00:50:00,
2013-06-22 20:55:00,79.3,74.6,29.77,South,180,0.0,0.0,82,0.00,,,0.01,fowsr,2013-06-23 00:55:00,
2013-06-22 21:00:00,79.3,74.6,29.77,West,270,0.0,0.0,82,0.00,,,0.01,fowsr,2013-06-23 01:00:00,
2013-06-22 21:05:00,79.5,74.1,29.77,North,0,0.0,0.0,80,0.00,,,0.01,fowsr,2013-06-23 01:05:00,
2013-06-22 21:10:00,79.7,74.0,29.77,NW,315,0.0,0.7,79,0.00,,,0.01,fowsr,2013-06-23 01:10:00,
2013-06-22 21:15:00,79.7,74.0,29.77,NW,315,0.0,0.7,79,0.00,,,0.01,fowsr,2013-06-23 01:15:00,
2013-06-22 21:20:00,80.4,74.1,29.78,NW,315,0.0,1.6,77,0.00,,,0.01,fowsr,2013-06-23 01:20:00,
2013-06-22 21:25:00,80.6,74.0,29.78,NE,45,0.7,2.2,76,0.00,,,0.01,fowsr,2013-06-23 01:25:00,
2013-06-22 21:30:00,80.6,74.0,29.78,North,0,2.2,4.5,76,0.00,,,0.01,fowsr,2013-06-23 01:30:00,
2013-06-22 21:35:00,80.4,74.1,29.78,NW,315,0.0,2.2,77,0.00,,,0.01,fowsr,2013-06-23 01:35:00,
2013-06-22 21:40:00,80.4,74.1,29.78,NW,315,0.0,2.2,77,0.00,,,0.01,fowsr,2013-06-23 01:40:00,
2013-06-22 21:45:00,80.2,73.9,29.79,NW,315,1.6,3.1,77,0.00,,,0.01,fowsr,2013-06-23 01:45:00,
2013-06-22 21:50:00,80.2,74.2,29.78,NW,315,1.6,3.1,78,0.00,,,0.01,fowsr,2013-06-23 01:50:00,
2013-06-22 22:00:00,79.9,74.2,29.78,NW,315,0.7,2.2,79,0.00,,,0.01,fowsr,2013-06-23 02:00:00,
2013-06-22 22:05:00,79.9,74.2,29.78,North,0,0.7,1.6,79,0.00,,,0.01,fowsr,2013-06-23 02:05:00,
2013-06-22 22:10:00,79.9,74.2,29.78,North,0,2.2,5.4,79,0.00,,,0.01,fowsr,2013-06-23 02:10:00,
2013-06-22 22:15:00,79.7,74.0,29.78,North,0,0.7,1.6,79,0.00,,,0.01,fowsr,2013-06-23 02:15:00,
2013-06-22 22:20:00,79.7,74.0,29.78,NW,315,0.0,0.7,79,0.00,,,0.01,fowsr,2013-06-23 02:20:00,
2013-06-22 22:25:00,79.5,73.8,29.78,North,0,0.7,2.2,79,0.00,,,0.01,fowsr,2013-06-23 02:25:00,
2013-06-22 22:30:00,79.5,74.1,29.79,NW,315,1.6,2.2,80,0.00,,,0.01,fowsr,2013-06-23 02:30:00,
2013-06-22 22:35:00,79.3,74.0,29.79,NW,315,1.6,3.1,80,0.00,,,0.01,fowsr,2013-06-23 02:35:00,
2013-06-22 22:40:00,79.3,74.3,29.79,NW,315,0.0,0.0,81,0.00,,,0.01,fowsr,2013-06-23 02:40:00,
2013-06-22 22:45:00,79.2,74.1,29.79,West,270,0.0,0.7,81,0.00,,,0.01,fowsr,2013-06-23 02:45:00,
2013-06-22 22:50:00,79.0,73.9,29.79,NW,315,0.7,1.6,81,0.00,,,0.01,fowsr,2013-06-23 02:50:00,
2013-06-22 22:55:00,79.0,73.9,29.80,NE,45,0.7,1.6,81,0.00,,,0.01,fowsr,2013-06-23 02:55:00,
2013-06-22 23:00:00,79.0,73.9,29.80,North,0,1.6,2.2,81,0.00,,,0.01,fowsr,2013-06-23 03:00:00,
2013-06-22 23:05:00,78.8,73.7,29.80,NE,45,0.7,2.2,81,0.00,,,0.01,fowsr,2013-06-23 03:05:00,
2013-06-22 23:10:00,78.8,74.0,29.80,West,270,0.0,1.6,82,0.00,,,0.01,fowsr,2013-06-23 03:10:00,
2013-06-22 23:15:00,78.6,74.1,29.81,North,0,1.6,2.2,83,0.00,,,0.01,fowsr,2013-06-23 03:15:00,
2013-06-22 23:20:00,78.6,74.1,29.80,North,0,0.7,2.2,83,0.00,,,0.01,fowsr,2013-06-23 03:20:00,
2013-06-22 23:25:00,78.6,74.1,29.80,NW,315,0.0,0.0,83,0.00,,,0.01,fowsr,2013-06-23 03:25:00,
2013-06-22 23:30:00,78.3,73.8,29.81,NNE,22,0.7,2.2,83,0.00,,,0.01,fowsr,2013-06-23 03:30:00,
2013-06-22 23:35:00,78.3,74.1,29.81,North,0,0.7,2.2,84,0.00,,,0.01,fowsr,2013-06-23 03:35:00,
2013-06-22 23:40:00,78.3,74.1,29.81,North,0,0.0,1.6,84,0.00,,,0.01,fowsr,2013-06-23 03:40:00,
2013-06-22 23:45:00,78.1,73.9,29.81,North,0,0.7,2.2,84,0.00,,,0.01,fowsr,2013-06-23 03:45:00,
2013-06-22 23:50:00,77.9,74.0,29.81,NW,315,0.0,1.6,85,0.00,,,0.01,fowsr,2013-06-23 03:50:00,
2013-06-22 23:55:00,77.9,74.0,29.81,North,0,0.7,0.7,85,0.00,,,0.01,fowsr,2013-06-23 03:55:00,